contact:dominique.lefevre@mio.osupytheas.fr, maurice.libes@osupytheas.fr, didier.mallarino@osupytheas.fr
Project:EMSO http://www.emso-fr.org/EMSO-France
Depth: 2436.0 m
Title:EMSO Ligure Ouest : Data MII capteur AQUADOPP
Date,Latitude,Longitude,X_East,Y_North,Z_Up,Amplitude_X,Amplitude_Y,Amplitude_Z,Batterie,SoundSpeed,Heading,Pitch,Roll,Pressure,TIS,Speed,Direction
, degrees North, degrees East, m.s-1, m.s-1,m.s-1, 1, 1, 1, Volt, m.s-1, degree, degree, degree, dbar, degree_C, m.s-1, degree
2023-11-20T00:04:03,42.805,6.029,-0.01,-0.019,-0.02,106.0,105.0,103.0,13.4,1505.1,355.1,-0.8,1.8,2472.039,13.27,0.021,207.8
2023-11-20T00:07:03,42.805,6.029,-0.007,-0.028,-0.045,106.0,105.0,104.0,13.4,1505.2,352.4,-0.7,1.8,2471.937,13.28,0.028,194.0
2023-11-20T00:10:03,42.805,6.029,0.009,-0.017,-0.012,105.0,105.0,104.0,13.4,1505.2,336.5,-0.8,1.8,2471.83,13.28,0.019,152.1
2023-11-20T00:13:03,42.805,6.029,-0.012,-0.021,-0.045,105.0,105.0,103.0,13.4,1505.2,343.5,-0.8,1.8,2471.747,13.28,0.024,209.7
2023-11-20T00:16:03,42.805,6.029,-0.018,-0.021,-0.026,105.0,105.0,104.0,13.4,1505.2,353.3,-0.8,1.8,2471.708,13.28,0.027,220.6
2023-11-20T00:19:03,42.805,6.029,0.008,-0.026,0.006,105.0,104.0,103.0,13.3,1505.2,351.6,-0.7,1.8,2471.635,13.29,0.027,162.9
2023-11-20T00:22:03,42.805,6.029,0.0,-0.021,-0.018,106.0,105.0,103.0,13.4,1505.2,0.0,-0.8,1.8,2471.639,13.29,0.021,180.0
2023-11-20T00:25:03,42.805,6.029,-0.001,-0.025,-0.028,105.0,106.0,102.0,13.4,1505.2,348.5,-0.7,1.8,2471.554,13.29,0.025,182.3
2023-11-20T00:28:03,42.805,6.029,-0.003,-0.029,-0.031,106.0,105.0,103.0,13.4,1505.2,357.1,-0.7,1.8,2471.545,13.29,0.029,185.9
2023-11-20T00:31:03,42.805,6.029,0.009,0.0,-0.03,105.0,105.0,104.0,13.4,1505.2,336.8,-0.7,1.8,2471.569,13.29,0.009,90.0
2023-11-20T00:34:03,42.805,6.029,-0.008,-0.021,-0.019,106.0,105.0,103.0,13.4,1505.2,343.0,-0.8,1.8,2471.505,13.29,0.022,200.9
2023-11-20T00:37:03,42.805,6.029,-0.008,-0.011,-0.056,107.0,104.0,103.0,13.3,1505.2,359.1,-0.8,1.8,2471.501,13.29,0.013,216.0
2023-11-20T00:40:03,42.805,6.029,-0.008,-0.023,-0.027,108.0,103.0,102.0,13.4,1505.2,342.4,-0.8,1.8,2471.515,13.29,0.024,199.2
2023-11-20T00:43:03,42.805,6.029,-0.019,-0.038,-0.035,106.0,106.0,103.0,13.3,1505.2,0.8,-0.7,1.8,2471.518,13.29,0.042,206.6
2023-11-20T00:46:03,42.805,6.029,-0.008,-0.037,-0.011,107.0,104.0,104.0,13.3,1505.2,353.9,-0.7,1.8,2471.477,13.29,0.037,192.2
2023-11-20T00:49:03,42.805,6.029,0.0,-0.027,-0.007,105.0,105.0,104.0,13.4,1505.2,359.1,-0.8,1.8,2471.525,13.29,0.026,180.0
2023-11-20T00:52:03,42.805,6.029,-0.031,-0.025,-0.026,106.0,105.0,104.0,13.4,1505.2,348.1,-0.7,1.8,2471.503,13.29,0.039,231.1
2023-11-20T00:55:03,42.805,6.029,0.012,-0.021,-0.046,107.0,106.0,103.0,13.3,1505.2,335.3,-0.8,1.8,2471.489,13.29,0.024,150.3
2023-11-20T00:58:03,42.805,6.029,-0.002,-0.029,-0.021,106.0,105.0,103.0,13.4,1505.2,343.9,-0.8,1.8,2471.48,13.29,0.029,183.9
2023-11-20T01:04:03,42.805,6.029,-0.027,-0.01,0.003,109.0,107.0,104.0,13.3,1505.2,358.2,-0.8,1.8,2471.498,13.28,0.028,249.7
2023-11-20T01:07:03,42.805,6.029,0.0,-0.004,-0.029,106.0,105.0,103.0,13.4,1505.2,341.5,-0.8,1.8,2471.542,13.28,0.004,180.0
2023-11-20T01:10:03,42.805,6.029,-0.011,-0.017,-0.006,107.0,105.0,103.0,13.4,1505.2,352.5,-0.8,1.8,2471.527,13.29,0.02,212.9
2023-11-20T01:13:03,42.805,6.029,-0.019,-0.008,-0.045,108.0,104.0,105.0,13.4,1505.2,346.4,-0.7,1.8,2471.505,13.29,0.02,247.2
2023-11-20T01:16:03,42.805,6.029,0.013,-0.006,-0.015,107.0,106.0,105.0,13.4,1505.2,336.2,-0.8,1.8,2471.51,13.29,0.014,114.8
2023-11-20T01:19:03,42.805,6.029,0.001,-0.007,-0.041,106.0,106.0,102.0,13.3,1505.2,343.1,-0.8,1.8,2471.498,13.29,0.007,171.9
2023-11-20T01:22:02,42.805,6.029,-0.004,-0.028,-0.033,107.0,104.0,104.0,13.4,1505.2,340.0,-0.8,1.8,2471.464,13.29,0.028,188.1
2023-11-20T01:25:03,42.805,6.029,-0.01,-0.008,-0.029,107.0,104.0,104.0,13.4,1505.2,343.8,-0.7,1.8,2471.488,13.29,0.012,231.3
2023-11-20T01:28:03,42.805,6.029,0.007,-0.028,-0.039,106.0,105.0,103.0,13.4,1505.2,337.7,-0.8,1.8,2471.516,13.29,0.028,166.0
2023-11-20T01:31:03,42.805,6.029,0.0,-0.014,-0.045,107.0,106.0,103.0,13.3,1505.2,342.1,-0.8,1.8,2471.525,13.29,0.014,180.0
2023-11-20T01:34:03,42.805,6.029,0.008,-0.026,-0.002,107.0,106.0,104.0,13.4,1505.2,339.8,-0.8,1.8,2471.516,13.29,0.027,162.9
2023-11-20T01:37:03,42.805,6.029,0.01,-0.029,-0.026,106.0,107.0,104.0,13.4,1505.2,0.0,-0.8,1.8,2471.534,13.29,0.03,161.0
2023-11-20T01:40:03,42.805,6.029,-0.02,-0.009,-0.031,106.0,106.0,103.0,13.4,1505.2,355.5,-0.8,1.8,2471.514,13.29,0.021,245.8
2023-11-20T01:43:03,42.805,6.029,-0.007,-0.006,-0.027,106.0,106.0,103.0,13.3,1505.2,358.1,-0.8,1.8,2471.5,13.29,0.009,229.4
2023-11-20T01:46:03,42.805,6.029,0.004,-0.006,-0.061,106.0,106.0,104.0,13.4,1505.2,342.1,-0.8,1.9,2471.461,13.29,0.007,146.3
2023-11-20T01:49:03,42.805,6.029,-0.014,-0.009,-0.047,108.0,106.0,103.0,13.4,1505.2,353.1,-0.7,1.8,2471.475,13.29,0.016,237.3
2023-11-20T01:52:03,42.805,6.029,0.005,-0.019,-0.01,106.0,106.0,103.0,13.4,1505.2,354.6,-0.8,1.8,2471.497,13.29,0.019,165.3
2023-11-20T01:55:03,42.805,6.029,-0.004,-0.035,-0.032,106.0,106.0,104.0,13.4,1505.2,349.6,-0.8,1.8,2471.514,13.29,0.035,186.5
2023-11-20T01:58:03,42.805,6.029,0.0,-0.028,-0.047,106.0,106.0,104.0,13.4,1505.2,349.2,-0.7,1.8,2471.505,13.29,0.028,180.0
2023-11-20T02:04:03,42.805,6.029,0.0,-0.008,-0.028,106.0,105.0,104.0,13.3,1505.2,345.5,-0.8,1.8,2471.525,13.28,0.008,180.0
2023-11-20T02:07:03,42.805,6.029,-0.005,-0.007,-0.023,105.0,107.0,104.0,13.4,1505.2,337.0,-0.8,1.8,2471.543,13.29,0.008,215.5
2023-11-20T02:10:03,42.805,6.029,0.001,-0.009,-0.024,105.0,106.0,104.0,13.3,1505.2,357.1,-0.7,1.9,2471.522,13.29,0.009,173.7
2023-11-20T02:13:03,42.805,6.029,-0.015,-0.009,-0.001,106.0,105.0,103.0,13.3,1505.2,353.9,-0.7,1.9,2471.525,13.29,0.017,239.0
2023-11-20T02:16:03,42.805,6.029,0.008,0.0,-0.029,105.0,106.0,104.0,13.4,1505.2,334.8,-0.8,1.8,2471.476,13.29,0.008,90.0
2023-11-20T02:19:03,42.805,6.029,-0.002,-0.016,-0.005,107.0,107.0,104.0,13.4,1505.2,344.5,-0.8,1.8,2471.517,13.29,0.016,187.1
2023-11-20T02:22:03,42.805,6.029,-0.002,-0.016,-0.004,108.0,105.0,104.0,13.4,1505.2,354.8,-0.8,1.8,2471.55,13.29,0.016,187.1
2023-11-20T02:25:03,42.805,6.029,0.002,-0.009,-0.037,107.0,106.0,103.0,13.4,1505.2,351.1,-0.8,1.8,2471.538,13.29,0.009,167.5
2023-11-20T02:28:03,42.805,6.029,-0.012,0.0,-0.013,108.0,106.0,104.0,13.4,1505.2,336.3,-0.7,1.8,2471.462,13.29,0.012,270.0
2023-11-20T02:31:03,42.805,6.029,-0.009,-0.029,-0.008,107.0,105.0,104.0,13.4,1505.2,355.2,-0.7,1.8,2471.527,13.29,0.03,197.2
2023-11-20T02:34:03,42.805,6.029,-0.019,-0.018,-0.029,105.0,105.0,104.0,13.4,1505.2,346.8,-0.8,1.8,2471.485,13.29,0.026,226.5
2023-11-20T02:37:03,42.805,6.029,-0.001,-0.015,-0.05,106.0,105.0,104.0,13.4,1505.2,348.8,-0.7,1.8,2471.52,13.29,0.015,183.8
2023-11-20T02:40:03,42.805,6.029,-0.003,-0.02,-0.024,107.0,106.0,103.0,13.3,1505.2,343.3,-0.7,1.8,2471.494,13.29,0.02,188.5
2023-11-20T02:43:03,42.805,6.029,-0.014,-0.018,-0.044,106.0,107.0,103.0,13.4,1505.2,337.9,-0.8,1.8,2471.516,13.29,0.022,217.9
2023-11-20T02:46:03,42.805,6.029,-0.012,-0.016,-0.028,107.0,104.0,103.0,13.4,1505.2,345.1,-0.8,1.8,2471.469,13.29,0.02,216.9
2023-11-20T02:49:03,42.805,6.029,-0.022,-0.022,-0.033,106.0,106.0,104.0,13.4,1505.2,341.3,-0.8,1.8,2471.47,13.29,0.031,225.0
2023-11-20T02:52:03,42.805,6.029,-0.013,0.002,-0.009,107.0,106.0,104.0,13.4,1505.2,356.1,-0.8,1.8,2471.501,13.29,0.013,278.7
2023-11-20T02:55:03,42.805,6.029,0.0,0.002,0.0,106.0,107.0,104.0,13.4,1505.2,336.5,-0.8,1.8,2471.493,13.29,0.002,0.0
2023-11-20T02:58:03,42.805,6.029,-0.014,-0.025,-0.017,107.0,106.0,104.0,13.3,1505.2,359.0,-0.8,1.8,2471.504,13.29,0.028,209.3
2023-11-20T03:04:03,42.805,6.029,0.0,-0.002,0.0,107.0,105.0,103.0,13.3,1505.2,357.4,-0.7,1.8,2471.557,13.29,0.002,180.0
2023-11-20T03:07:03,42.805,6.029,-0.012,-0.009,-0.014,106.0,106.0,104.0,13.4,1505.2,350.9,-0.8,1.8,2471.535,13.29,0.015,233.1
2023-11-20T03:10:03,42.805,6.029,0.001,-0.013,0.0,106.0,104.0,103.0,13.3,1505.2,352.1,-0.8,1.8,2471.528,13.29,0.013,175.6
2023-11-20T03:13:03,42.805,6.029,-0.006,-0.007,-0.032,107.0,105.0,104.0,13.3,1505.2,334.8,-0.8,1.8,2471.505,13.29,0.009,220.6
2023-11-20T03:16:03,42.805,6.029,-0.011,-0.002,-0.033,105.0,107.0,105.0,13.4,1505.2,345.3,-0.8,1.8,2471.486,13.29,0.011,259.7
2023-11-20T03:19:03,42.805,6.029,-0.007,0.0,-0.014,108.0,105.0,105.0,13.3,1505.2,0.0,-0.8,1.8,2471.505,13.29,0.007,270.0
2023-11-20T03:22:03,42.805,6.029,-0.006,-0.003,-0.014,107.0,106.0,104.0,13.4,1505.2,349.5,-0.8,1.8,2471.462,13.29,0.006,243.4
2023-11-20T03:25:03,42.805,6.029,-0.033,0.008,-0.017,107.0,107.0,104.0,13.4,1505.2,356.5,-0.7,1.8,2471.447,13.29,0.033,283.6
2023-11-20T03:28:03,42.805,6.029,-0.024,-0.002,-0.036,106.0,106.0,104.0,13.4,1505.2,353.5,-0.8,1.8,2471.473,13.29,0.024,265.2
2023-11-20T03:31:03,42.805,6.029,-0.028,-0.022,-0.036,108.0,106.0,103.0,13.4,1505.2,355.3,-0.8,1.8,2471.497,13.29,0.035,231.8
2023-11-20T03:34:03,42.805,6.029,-0.02,-0.023,-0.056,106.0,107.0,104.0,13.4,1505.2,354.8,-0.8,1.8,2471.485,13.29,0.03,221.0
2023-11-20T03:37:03,42.805,6.029,-0.026,-0.01,-0.025,108.0,106.0,104.0,13.4,1505.2,338.0,-0.8,1.8,2471.517,13.29,0.027,249.0
2023-11-20T03:40:03,42.805,6.029,-0.023,0.0,-0.06,108.0,107.0,104.0,13.4,1505.2,359.1,-0.7,1.8,2471.475,13.29,0.023,270.0
2023-11-20T03:43:03,42.805,6.029,-0.038,-0.009,-0.026,106.0,107.0,104.0,13.3,1505.2,348.1,-0.8,1.9,2471.445,13.29,0.039,256.7
2023-11-20T03:46:03,42.805,6.029,-0.027,-0.016,-0.027,107.0,105.0,105.0,13.4,1505.2,342.6,-0.8,1.8,2471.458,13.29,0.031,239.3
2023-11-20T03:49:03,42.805,6.029,-0.015,-0.004,-0.002,107.0,107.0,104.0,13.3,1505.2,342.7,-0.7,1.8,2471.449,13.29,0.015,255.1
2023-11-20T03:52:03,42.805,6.029,-0.019,0.005,-0.032,108.0,106.0,103.0,13.4,1505.2,1.6,-0.8,1.8,2471.471,13.29,0.019,284.7
2023-11-20T03:55:03,42.805,6.029,-0.012,-0.008,-0.03,106.0,106.0,104.0,13.4,1505.2,348.3,-0.8,1.8,2471.468,13.29,0.014,236.3
2023-11-20T03:58:03,42.805,6.029,-0.024,-0.02,-0.032,107.0,106.0,105.0,13.3,1505.2,339.5,-0.8,1.8,2471.464,13.29,0.031,230.2
2023-11-20T04:04:03,42.805,6.029,-0.02,-0.012,-0.041,107.0,106.0,105.0,13.4,1505.2,355.3,-0.8,1.8,2471.523,13.29,0.023,239.0
2023-11-20T04:07:03,42.805,6.029,-0.022,-0.008,-0.07,107.0,107.0,104.0,13.3,1505.2,338.3,-0.8,1.8,2471.509,13.29,0.023,250.0
2023-11-20T04:10:03,42.805,6.029,-0.033,0.013,-0.015,107.0,107.0,104.0,13.4,1505.2,343.9,-0.7,1.8,2471.494,13.29,0.035,291.5
2023-11-20T04:13:03,42.805,6.029,-0.013,-0.01,-0.026,107.0,105.0,105.0,13.3,1505.2,356.6,-0.8,1.8,2471.462,13.29,0.016,232.4
2023-11-20T04:16:03,42.805,6.029,-0.015,-0.02,-0.055,106.0,106.0,104.0,13.3,1505.2,344.6,-0.7,1.9,2471.509,13.29,0.025,216.9
2023-11-20T04:19:03,42.805,6.029,-0.031,-0.022,-0.033,107.0,107.0,104.0,13.4,1505.2,354.8,-0.8,1.8,2471.485,13.29,0.038,234.6
2023-11-20T04:22:03,42.805,6.029,-0.03,-0.008,-0.062,108.0,107.0,105.0,13.4,1505.2,353.4,-0.8,1.8,2471.457,13.29,0.031,255.1
2023-11-20T04:25:03,42.805,6.029,-0.02,-0.033,-0.035,106.0,106.0,104.0,13.3,1505.2,351.8,-0.7,1.8,2471.516,13.29,0.038,211.2
2023-11-20T04:28:03,42.805,6.029,-0.029,-0.028,-0.037,108.0,106.0,105.0,13.3,1505.2,341.5,-0.8,1.8,2471.464,13.29,0.04,226.0
2023-11-20T04:31:03,42.805,6.029,-0.027,-0.022,-0.015,107.0,107.0,104.0,13.3,1505.2,345.9,-0.8,1.8,2471.498,13.29,0.034,230.8
2023-11-20T04:34:03,42.805,6.029,-0.03,-0.001,-0.027,107.0,106.0,105.0,13.4,1505.2,355.3,-0.7,1.8,2471.483,13.29,0.03,268.1
2023-11-20T04:37:03,42.805,6.029,-0.007,-0.039,-0.052,108.0,107.0,105.0,13.4,1505.2,335.3,-0.7,1.8,2471.466,13.29,0.039,190.2
2023-11-20T04:40:03,42.805,6.029,-0.03,-0.007,-0.023,108.0,107.0,105.0,13.4,1505.2,359.1,-0.8,1.8,2471.45,13.29,0.03,256.9
2023-11-20T04:43:03,42.805,6.029,-0.018,-0.013,-0.021,107.0,107.0,104.0,13.3,1505.2,346.1,-0.8,1.8,2471.481,13.29,0.022,234.2
2023-11-20T04:46:03,42.805,6.029,-0.039,0.0,-0.028,110.0,106.0,104.0,13.3,1505.2,359.1,-0.8,1.7,2471.454,13.29,0.039,270.0
2023-11-20T04:49:03,42.805,6.029,-0.013,-0.013,-0.038,108.0,108.0,105.0,13.4,1505.2,337.3,-0.8,1.8,2471.419,13.29,0.018,225.0
2023-11-20T04:52:03,42.805,6.029,-0.032,-0.019,-0.044,108.0,106.0,104.0,13.3,1505.2,345.5,-0.7,1.8,2471.447,13.29,0.037,239.3
2023-11-20T04:55:03,42.805,6.029,-0.021,-0.001,-0.025,108.0,106.0,104.0,13.4,1505.2,347.3,-0.8,1.8,2471.474,13.29,0.021,267.3
2023-11-20T04:58:03,42.805,6.029,-0.029,-0.02,-0.027,108.0,106.0,104.0,13.4,1505.2,357.1,-0.8,1.8,2471.467,13.29,0.035,235.4
2023-11-20T05:04:03,42.805,6.029,-0.029,0.001,-0.009,106.0,107.0,105.0,13.4,1505.2,0.8,-0.8,1.8,2471.488,13.29,0.029,272.0
2023-11-20T05:07:03,42.805,6.029,-0.022,-0.019,-0.042,107.0,106.0,104.0,13.4,1505.2,351.4,-0.8,1.8,2471.503,13.29,0.029,229.2
2023-11-20T05:10:03,42.805,6.029,-0.02,-0.016,-0.024,106.0,108.0,105.0,13.3,1505.2,349.2,-0.8,1.8,2471.479,13.29,0.025,231.3
2023-11-20T05:13:03,42.805,6.029,-0.009,-0.011,-0.019,107.0,107.0,105.0,13.4,1505.2,337.8,-0.8,1.8,2471.477,13.29,0.014,219.3
2023-11-20T05:16:03,42.805,6.029,-0.011,-0.031,-0.059,107.0,106.0,104.0,13.4,1505.2,342.7,-0.8,1.8,2471.496,13.29,0.032,199.5
2023-11-20T05:19:03,42.805,6.029,-0.016,-0.01,-0.05,107.0,106.0,105.0,13.4,1505.2,338.8,-0.8,1.8,2471.465,13.29,0.018,238.0
2023-11-20T05:22:03,42.805,6.029,-0.036,0.005,-0.042,107.0,108.0,104.0,13.4,1505.2,358.1,-0.8,1.8,2471.447,13.29,0.036,277.9
2023-11-20T05:25:03,42.805,6.029,-0.014,-0.033,-0.033,107.0,107.0,104.0,13.4,1505.2,341.2,-0.8,1.8,2471.51,13.29,0.035,203.0
2023-11-20T05:28:03,42.805,6.029,-0.026,-0.004,-0.035,107.0,106.0,105.0,13.3,1505.2,350.4,-0.7,1.8,2471.409,13.29,0.026,261.3
2023-11-20T05:31:03,42.805,6.029,-0.015,-0.015,0.002,109.0,106.0,105.0,13.4,1505.2,344.4,-0.8,1.8,2471.428,13.29,0.021,225.0
2023-11-20T05:34:03,42.805,6.029,-0.033,-0.005,-0.016,107.0,106.0,104.0,13.4,1505.2,347.6,-0.8,1.8,2471.434,13.29,0.033,261.4
2023-11-20T05:37:03,42.805,6.029,-0.013,-0.017,-0.025,107.0,106.0,105.0,13.4,1505.2,349.5,-0.7,1.8,2471.459,13.29,0.021,217.4
2023-11-20T05:40:03,42.805,6.029,-0.011,-0.016,-0.027,108.0,106.0,104.0,13.3,1505.2,335.5,-0.8,1.8,2471.447,13.29,0.019,214.5
2023-11-20T05:43:03,42.805,6.029,-0.028,-0.032,-0.046,107.0,107.0,104.0,13.4,1505.2,350.2,-0.7,1.8,2471.465,13.29,0.042,221.2
2023-11-20T05:46:03,42.805,6.029,-0.013,-0.016,-0.019,106.0,106.0,105.0,13.4,1505.2,341.8,-0.8,1.8,2471.425,13.29,0.02,219.1
2023-11-20T05:49:03,42.805,6.029,-0.032,-0.02,-0.029,107.0,107.0,104.0,13.4,1505.2,1.8,-0.8,1.8,2471.445,13.29,0.037,238.0
2023-11-20T05:52:03,42.805,6.029,0.011,-0.022,-0.03,108.0,106.0,103.0,13.4,1505.2,340.1,-0.8,1.8,2471.437,13.29,0.024,153.4
2023-11-20T05:55:03,42.805,6.029,-0.014,-0.034,-0.024,107.0,107.0,104.0,13.4,1505.2,347.7,-0.7,1.8,2471.418,13.29,0.036,202.4
2023-11-20T05:58:03,42.805,6.029,-0.013,-0.045,-0.028,107.0,107.0,105.0,13.4,1505.2,334.1,-0.8,1.8,2471.421,13.29,0.046,196.1
2023-11-20T06:04:03,42.805,6.029,-0.029,-0.026,-0.029,107.0,106.0,104.0,13.4,1505.2,340.4,-0.8,1.8,2471.492,13.28,0.038,228.1
2023-11-20T06:07:03,42.805,6.029,-0.021,-0.029,-0.043,108.0,106.0,104.0,13.4,1505.2,1.6,-0.8,1.8,2471.496,13.29,0.035,215.9
2023-11-20T06:10:03,42.805,6.029,-0.026,-0.028,-0.001,109.0,107.0,104.0,13.4,1505.2,350.5,-0.8,1.8,2471.473,13.29,0.038,222.9
2023-11-20T06:13:03,42.805,6.029,-0.008,-0.039,-0.008,108.0,106.0,105.0,13.4,1505.2,348.5,-0.8,1.8,2471.476,13.29,0.039,191.6
2023-11-20T06:16:03,42.805,6.029,-0.013,-0.034,-0.052,108.0,107.0,105.0,13.4,1505.2,340.9,-0.7,1.8,2471.465,13.29,0.036,200.9
2023-11-20T06:19:03,42.805,6.029,-0.009,-0.042,-0.016,108.0,107.0,104.0,13.3,1505.2,359.0,-0.8,1.8,2471.429,13.29,0.042,192.1
2023-11-20T06:22:03,42.805,6.029,-0.028,-0.021,-0.052,108.0,106.0,104.0,13.3,1505.2,347.3,-0.8,1.8,2471.443,13.29,0.035,233.1
2023-11-20T06:25:03,42.805,6.029,-0.021,-0.03,-0.029,107.0,106.0,105.0,13.3,1505.2,352.4,-0.8,1.8,2471.426,13.29,0.036,215.0
2023-11-20T06:28:03,42.805,6.029,-0.007,-0.024,-0.018,107.0,107.0,103.0,13.3,1505.2,350.5,-0.8,1.8,2471.467,13.29,0.025,196.3
2023-11-20T06:31:03,42.805,6.029,-0.012,0.007,-0.048,106.0,106.0,104.0,13.3,1505.2,342.1,-0.7,1.8,2471.464,13.29,0.013,300.3
2023-11-20T06:34:03,42.805,6.029,-0.003,-0.005,-0.026,107.0,107.0,105.0,13.3,1505.2,0.0,-0.8,1.8,2471.431,13.29,0.005,211.0
2023-11-20T06:37:03,42.805,6.029,-0.021,-0.046,0.006,106.0,106.0,104.0,13.3,1505.2,353.1,-0.8,1.8,2471.459,13.29,0.05,204.5
2023-11-20T06:40:03,42.805,6.029,-0.015,-0.059,-0.031,106.0,105.0,104.0,13.3,1505.2,1.7,-0.8,1.8,2471.446,13.29,0.06,194.3
2023-11-20T06:43:03,42.805,6.029,0.004,-0.031,-0.034,106.0,106.0,104.0,13.3,1505.2,343.3,-0.8,1.8,2471.472,13.29,0.031,172.7
2023-11-20T06:46:03,42.805,6.029,-0.021,-0.008,-0.034,108.0,106.0,104.0,13.4,1505.2,358.1,-0.8,1.8,2471.433,13.29,0.022,249.1
2023-11-20T06:49:03,42.805,6.029,-0.012,-0.034,-0.027,108.0,105.0,103.0,13.4,1505.2,343.6,-0.7,1.8,2471.388,13.29,0.036,199.4
2023-11-20T06:52:03,42.805,6.029,-0.016,-0.024,-0.007,107.0,107.0,104.0,13.3,1505.2,352.2,-0.8,1.8,2471.486,13.29,0.028,213.7
2023-11-20T06:55:03,42.805,6.029,0.0,-0.021,-0.034,106.0,107.0,105.0,13.4,1505.2,335.7,-0.8,1.8,2471.438,13.29,0.021,180.0
2023-11-20T06:58:03,42.805,6.029,-0.02,-0.041,-0.024,107.0,106.0,104.0,13.3,1505.2,345.3,-0.8,1.8,2471.464,13.29,0.045,206.0
2023-11-20T07:04:03,42.805,6.029,-0.032,-0.022,-0.011,107.0,106.0,105.0,13.4,1505.2,358.2,-0.7,1.8,2471.482,13.28,0.038,235.5
2023-11-20T07:07:03,42.805,6.029,-0.004,-0.012,-0.016,107.0,106.0,105.0,13.4,1505.2,348.1,-0.8,1.8,2471.498,13.28,0.012,198.4
2023-11-20T07:10:03,42.805,6.029,-0.009,-0.018,-0.02,107.0,106.0,104.0,13.4,1505.2,341.5,-0.8,1.8,2471.492,13.29,0.02,206.6
2023-11-20T07:13:03,42.805,6.029,-0.025,-0.026,-0.034,108.0,106.0,105.0,13.4,1505.2,353.3,-0.8,1.8,2471.5,13.29,0.036,223.9
2023-11-20T07:16:03,42.805,6.029,-0.008,-0.024,-0.042,107.0,107.0,103.0,13.4,1505.2,357.4,-0.8,1.8,2471.494,13.29,0.025,198.4
2023-11-20T07:19:03,42.805,6.029,-0.003,-0.037,-0.02,108.0,106.0,105.0,13.4,1505.2,337.0,-0.8,1.8,2471.505,13.29,0.037,184.6
2023-11-20T07:22:03,42.805,6.029,-0.023,-0.022,-0.032,109.0,107.0,105.0,13.3,1505.2,1.7,-0.7,1.8,2471.45,13.29,0.031,226.3
2023-11-20T07:25:03,42.805,6.029,-0.032,-0.043,-0.018,108.0,106.0,104.0,13.4,1505.2,354.6,-0.7,1.8,2471.481,13.29,0.053,216.7
2023-11-20T07:28:03,42.805,6.029,-0.013,-0.02,-0.016,107.0,106.0,105.0,13.3,1505.2,343.5,-0.7,1.8,2471.469,13.29,0.023,213.0
2023-11-20T07:31:03,42.805,6.029,-0.027,-0.034,-0.041,108.0,107.0,105.0,13.3,1505.2,343.1,-0.8,1.8,2471.391,13.29,0.043,218.5
2023-11-20T07:34:03,42.805,6.029,-0.017,-0.024,-0.029,108.0,107.0,105.0,13.3,1505.2,340.4,-0.8,1.8,2471.457,13.29,0.029,215.3
2023-11-20T07:37:03,42.805,6.029,-0.034,-0.013,-0.027,108.0,107.0,104.0,13.3,1505.2,348.8,-0.8,1.8,2471.459,13.29,0.036,249.1
2023-11-20T07:40:03,42.805,6.029,-0.012,-0.023,-0.027,106.0,106.0,106.0,13.4,1505.2,336.1,-0.7,1.8,2471.495,13.29,0.025,207.6
2023-11-20T07:43:03,42.805,6.029,-0.029,-0.01,-0.041,107.0,107.0,105.0,13.3,1505.2,344.1,-0.8,1.8,2471.452,13.29,0.03,251.0
2023-11-20T07:46:03,42.805,6.029,-0.016,-0.021,-0.03,107.0,108.0,104.0,13.3,1505.2,335.9,-0.8,1.8,2471.52,13.29,0.026,217.3
2023-11-20T07:49:03,42.805,6.029,-0.033,-0.026,-0.069,108.0,106.0,104.0,13.4,1505.2,347.5,-0.8,1.8,2471.449,13.29,0.042,231.8
2023-11-20T07:52:03,42.805,6.029,-0.004,-0.005,-0.004,109.0,107.0,105.0,13.4,1505.2,334.5,-0.8,1.8,2471.489,13.29,0.006,218.7
2023-11-20T07:55:03,42.805,6.029,-0.024,-0.017,0.0,107.0,106.0,104.0,13.3,1505.2,357.2,-0.8,1.8,2471.498,13.29,0.029,234.7
2023-11-20T07:58:03,42.805,6.029,-0.021,-0.044,-0.044,108.0,106.0,104.0,13.3,1505.2,348.1,-0.8,1.8,2471.485,13.29,0.048,205.5
2023-11-20T08:04:03,42.805,6.029,-0.015,-0.023,-0.039,107.0,107.0,104.0,13.3,1505.2,350.2,-0.8,1.8,2471.518,13.29,0.027,213.1
2023-11-20T08:07:03,42.805,6.029,-0.004,-0.011,-0.007,108.0,108.0,104.0,13.3,1505.2,359.1,-0.8,1.8,2471.542,13.29,0.011,200.0
2023-11-20T08:10:03,42.805,6.029,-0.015,-0.008,-0.046,107.0,106.0,104.0,13.4,1505.2,352.4,-0.8,1.8,2471.534,13.29,0.017,241.9
2023-11-20T08:13:03,42.805,6.029,-0.02,-0.014,-0.012,107.0,106.0,104.0,13.3,1505.2,345.1,-0.8,1.8,2471.538,13.29,0.024,235.0
2023-11-20T08:16:03,42.805,6.029,0.001,-0.024,-0.02,108.0,106.0,104.0,13.3,1505.2,347.3,-0.7,1.8,2471.553,13.29,0.024,177.6
2023-11-20T08:19:03,42.805,6.029,-0.011,-0.033,-0.048,107.0,107.0,105.0,13.4,1505.2,343.0,-0.8,1.8,2471.524,13.29,0.034,198.4
2023-11-20T08:22:03,42.805,6.029,-0.013,-0.016,-0.053,107.0,107.0,104.0,13.3,1505.2,359.0,-0.8,1.8,2471.5,13.29,0.02,219.1
2023-11-20T08:25:03,42.805,6.029,-0.025,-0.024,-0.022,107.0,106.0,104.0,13.3,1505.2,348.6,-0.8,1.8,2471.514,13.29,0.034,226.2
2023-11-20T08:28:03,42.805,6.029,0.005,-0.03,-0.057,108.0,107.0,103.0,13.4,1505.2,337.0,-0.8,1.8,2471.513,13.29,0.03,170.5
2023-11-20T08:31:03,42.805,6.029,-0.014,-0.018,-0.016,108.0,106.0,104.0,13.4,1505.2,345.7,-0.8,1.8,2471.477,13.29,0.022,217.9
2023-11-20T08:34:03,42.805,6.029,-0.03,-0.016,-0.016,106.0,107.0,103.0,13.4,1505.2,0.8,-0.8,1.8,2471.505,13.29,0.034,241.9
2023-11-20T08:37:03,42.805,6.029,0.0,-0.032,0.003,108.0,106.0,105.0,13.4,1505.2,349.5,-0.8,1.8,2471.522,13.29,0.032,180.0
2023-11-20T08:40:03,42.805,6.029,-0.011,-0.017,-0.018,107.0,106.0,104.0,13.3,1505.2,345.0,-0.8,1.8,2471.485,13.29,0.02,212.9
2023-11-20T08:43:03,42.805,6.029,-0.02,0.0,-0.017,108.0,106.0,105.0,13.3,1505.2,340.7,-0.8,1.8,2471.508,13.29,0.02,270.0
2023-11-20T08:46:03,42.805,6.029,-0.005,-0.007,-0.015,107.0,106.0,104.0,13.4,1505.2,337.5,-0.8,1.8,2471.497,13.29,0.008,215.5
2023-11-20T08:49:03,42.805,6.029,-0.018,-0.009,-0.006,107.0,107.0,104.0,13.4,1505.2,357.2,-0.8,1.8,2471.562,13.29,0.02,243.4
2023-11-20T08:52:03,42.805,6.029,-0.016,-0.022,-0.038,108.0,107.0,105.0,13.4,1505.2,347.3,-0.8,1.8,2471.496,13.29,0.027,216.0
2023-11-20T08:55:03,42.805,6.029,-0.029,-0.027,-0.027,108.0,107.0,105.0,13.4,1505.2,356.5,-0.8,1.8,2471.507,13.29,0.039,227.0
2023-11-20T08:58:03,42.805,6.029,-0.02,-0.023,-0.018,106.0,107.0,105.0,13.3,1505.2,343.9,-0.7,1.8,2471.507,13.29,0.03,221.0
2023-11-20T09:04:03,42.805,6.029,-0.023,-0.032,-0.002,108.0,106.0,104.0,13.3,1505.2,348.3,-0.8,1.8,2471.562,13.28,0.039,215.7
2023-11-20T09:07:03,42.805,6.029,-0.023,-0.009,0.016,107.0,107.0,105.0,13.4,1505.2,337.6,-0.8,1.8,2471.611,13.29,0.024,248.6
2023-11-20T09:10:03,42.805,6.029,-0.008,-0.023,-0.015,108.0,107.0,105.0,13.3,1505.2,347.0,-0.7,1.8,2471.532,13.29,0.024,199.2
2023-11-20T09:13:03,42.805,6.029,-0.004,-0.039,-0.032,108.0,107.0,105.0,13.4,1505.2,351.6,-0.7,1.8,2471.558,13.29,0.039,185.9
2023-11-20T09:16:03,42.805,6.029,-0.036,-0.01,-0.017,108.0,106.0,104.0,13.4,1505.2,353.9,-0.8,1.8,2471.559,13.29,0.037,254.5
2023-11-20T09:19:03,42.805,6.029,-0.031,-0.018,-0.012,108.0,105.0,104.0,13.3,1505.2,346.1,-0.8,1.8,2471.525,13.29,0.035,239.9
2023-11-20T09:22:03,42.805,6.029,-0.023,-0.025,-0.044,107.0,107.0,104.0,13.3,1505.2,353.7,-0.7,1.8,2471.559,13.29,0.033,222.6
2023-11-20T09:25:03,42.805,6.029,-0.013,-0.025,-0.006,107.0,106.0,103.0,13.3,1505.2,349.4,-0.8,1.8,2471.541,13.29,0.028,207.5
2023-11-20T09:28:03,42.805,6.029,-0.021,-0.011,-0.05,108.0,107.0,104.0,13.3,1505.2,359.1,-0.8,1.8,2471.53,13.29,0.023,242.4
2023-11-20T09:31:03,42.805,6.029,-0.022,-0.012,-0.018,107.0,106.0,105.0,13.4,1505.2,352.2,-0.7,1.8,2471.546,13.29,0.025,241.4
2023-11-20T09:34:03,42.805,6.029,-0.016,-0.017,-0.046,108.0,106.0,104.0,13.3,1505.2,356.6,-0.8,1.9,2471.559,13.29,0.023,223.3
2023-11-20T09:37:03,42.805,6.029,-0.018,-0.02,-0.049,108.0,105.0,103.0,13.4,1505.2,349.0,-0.8,1.8,2471.5,13.29,0.026,222.0
2023-11-20T09:40:03,42.805,6.029,-0.034,-0.014,-0.045,107.0,107.0,103.0,13.4,1505.2,355.7,-0.8,1.8,2471.543,13.29,0.036,247.6
2023-11-20T09:43:03,42.805,6.029,-0.031,-0.035,-0.053,108.0,106.0,104.0,13.4,1505.2,353.5,-0.8,1.8,2471.521,13.29,0.046,221.5
2023-11-20T09:46:03,42.805,6.029,-0.02,-0.013,-0.026,109.0,104.0,103.0,13.4,1505.2,353.1,-0.8,1.8,2471.553,13.29,0.023,237.0
2023-11-20T09:49:03,42.805,6.029,-0.027,-0.017,-0.03,108.0,106.0,104.0,13.4,1505.2,336.1,-0.7,1.8,2471.546,13.29,0.031,237.8
2023-11-20T09:52:03,42.805,6.029,-0.011,-0.021,-0.018,108.0,107.0,104.0,13.4,1505.2,346.5,-0.8,1.8,2471.528,13.29,0.023,207.6